Theta_e
348 348 349 349 349 349 349 351 353 354 354 356 356 355 354 356 356 358 356 355 355 356 357 355 355 354 354 355 354 354 355 356 356 355 356 356 355 354 354 354 354 350 345 344 348 353 355 356 355 354 356 357 355 353 356 355 352 349 344 338 336 334 335 338 341 341 341 343 343 345 346 347 347 345 346 347 348 349 349 350 351 351 350 349 349
348 348 348 348 349 349 348 350 353 353 354 354 356 355 355 356 356 358 357 356 355 355 356 356 355 355 354 354 354 354 354 354 356 356 356 355 353 353 354 353 353 352 347 342 344 349 354 356 356 355 355 355 356 355 356 355 353 349 343 339 341 341 335 335 339 340 341 341 342 343 344 347 347 346 347 348 349 350 348 349 350 349 349 349 350
350 347 348 348 348 349 348 349 351 352 354 354 355 355 355 356 356 356 357 357 355 354 355 355 354 355 355 354 354 354 354 354 354 355 355 355 353 354 354 353 353 352 351 346 341 344 352 356 355 356 356 355 357 357 356 354 353 351 347 344 346 342 335 334 337 339 340 341 342 344 344 346 346 345 349 349 349 350 349 348 348 348 348 348 349
350 348 348 348 347 349 348 348 350 352 353 354 354 355 354 355 355 356 357 357 356 354 355 355 354 354 355 355 353 354 353 353 353 354 355 354 353 354 353 353 353 352 352 349 342 340 348 354 354 355 356 356 357 358 356 354 352 351 348 346 345 340 334 334 338 339 340 340 343 348 345 345 348 346 347 349 350 351 349 348 349 348 348 347 347
349 349 348 348 347 348 348 349 349 351 352 353 354 354 354 354 355 355 356 357 356 355 355 355 355 355 355 355 354 354 354 353 353 353 354 354 353 353 352 353 352 352 352 351 347 340 344 351 354 355 356 356 358 358 357 354 352 350 349 347 343 339 336 336 338 341 343 340 343 349 346 348 356 349 344 347 349 351 349 348 349 348 347 347 346
349 350 348 348 348 348 348 349 350 350 351 353 354 353 353 353 354 355 356 356 356 356 355 355 355 355 355 356 355 355 355 355 353 352 354 354 354 352 353 352 352 352 352 352 351 344 342 348 352 355 356 356 357 358 358 355 354 352 350 350 345 341 340 337 338 342 344 342 342 347 346 348 353 347 346 348 346 348 350 349 349 347 347 346 345
350 350 349 348 348 348 349 349 350 350 350 351 353 354 354 354 354 355 355 356 356 355 355 356 355 355 355 355 355 355 355 355 353 353 353 354 354 353 353 352 352 352 352 353 354 349 343 344 349 353 355 356 357 358 359 356 356 354 350 352 348 343 342 336 337 343 345 345 345 344 344 344 344 342 347 350 346 345 347 348 348 347 348 347 345
350 350 349 349 349 349 349 349 350 350 350 351 352 353 354 354 354 355 356 356 356 356 356 356 355 355 355 354 355 355 354 354 354 353 353 354 353 354 354 353 352 353 353 353 354 352 346 343 345 349 353 357 358 359 359 357 356 355 351 352 349 344 343 337 337 344 344 343 345 345 344 344 342 340 342 345 348 348 345 345 345 344 346 347 345
351 349 350 349 349 349 350 350 350 350 350 351 352 353 353 355 355 355 356 357 356 356 356 356 356 355 355 355 354 355 354 354 354 353 353 353 353 354 355 355 353 354 354 353 353 353 350 345 346 350 354 358 359 359 359 357 356 355 351 351 348 343 344 340 337 342 343 342 344 345 344 344 342 342 341 341 344 348 347 344 341 341 343 345 345
351 350 350 349 349 350 349 351 350 351 351 351 352 353 353 354 355 356 357 357 357 357 356 356 356 356 355 355 354 355 354 354 354 354 352 352 353 353 355 355 354 354 354 353 354 353 351 348 350 352 354 357 359 359 359 357 356 354 352 351 349 344 343 343 339 340 340 340 343 344 344 343 343 343 344 343 342 343 348 344 339 339 340 341 343
351 351 349 349 349 349 350 350 350 351 351 351 352 353 354 354 355 357 356 357 358 357 357 357 356 356 355 355 354 354 354 354 355 354 353 352 352 352 354 355 355 354 354 354 354 354 352 352 353 354 354 357 359 360 359 358 356 355 354 352 350 346 344 343 342 342 339 338 342 344 344 343 343 343 343 344 342 342 347 346 341 340 340 339 340
352 350 350 349 349 350 350 351 350 352 352 352 352 353 354 354 355 357 357 356 357 357 357 357 356 356 355 355 354 354 354 354 354 354 353 353 352 352 353 355 355 355 355 354 355 355 354 353 356 357 356 356 358 360 359 359 358 356 355 354 352 348 345 343 343 344 341 341 343 343 343 343 342 343 343 343 343 342 345 346 342 342 342 339 339
352 351 351 350 350 350 349 350 350 351 352 353 353 353 354 354 355 355 356 357 357 357 357 357 356 356 355 354 354 354 354 354 355 354 352 353 353 353 353 354 356 356 355 355 354 355 355 355 356 357 357 356 356 358 360 360 358 357 356 354 351 347 346 345 343 343 343 343 344 342 341 343 342 341 342 343 343 342 343 343 342 344 343 339 339
352 351 351 351 350 350 349 350 350 352 353 353 354 354 354 354 355 355 356 356 357 357 357 356 356 356 355 354 353 354 354 354 355 354 352 352 353 353 352 352 355 356 356 355 354 355 355 355 355 356 356 356 356 358 360 361 359 358 356 355 351 348 349 349 342 339 342 346 344 341 341 342 342 342 341 341 343 342 343 343 342 343 342 339 339
352 352 352 351 351 349 349 351 350 352 353 353 354 354 354 354 355 355 355 355 356 356 356 356 356 355 355 354 353 353 354 353 355 355 353 352 352 353 353 352 353 354 355 355 354 355 355 356 356 356 356 356 356 357 358 361 360 359 358 355 353 351 351 352 345 336 339 347 346 343 344 343 341 341 341 341 342 342 342 342 342 344 344 342 340
352 352 353 353 351 349 350 350 351 352 353 354 354 354 355 354 354 355 354 354 355 356 356 355 355 355 354 354 354 354 354 353 354 354 354 353 352 352 354 354 353 353 354 355 355 355 355 356 356 356 356 356 357 356 357 360 361 360 359 357 355 354 353 353 349 340 337 343 347 346 347 344 340 340 341 341 341 341 341 341 341 342 345 349 348
352 352 352 354 352 349 349 350 351 352 353 353 354 354 355 354 355 355 354 354 355 355 356 355 354 355 354 354 354 353 353 353 353 353 354 355 353 352 354 355 354 353 354 355 355 355 355 355 356 356 357 357 357 357 357 359 361 361 360 359 357 356 355 354 353 348 340 339 344 347 347 345 342 341 341 341 341 342 342 341 341 339 341 350 354
351 353 352 353 354 351 349 351 351 352 353 354 354 354 355 354 355 355 354 354 354 355 356 355 354 354 353 354 354 353 353 353 353 353 354 354 354 354 353 355 355 355 354 355 355 355 355 354 355 357 357 357 358 357 357 359 361 361 360 359 358 357 357 356 355 352 346 341 340 343 346 347 345 343 343 343 343 344 343 341 341 338 338 343 346
351 353 353 353 353 351 350 350 350 352 353 354 354 354 355 355 354 355 354 354 354 354 355 355 355 354 354 354 354 354 354 353 354 354 353 354 355 355 354 354 355 356 356 356 355 356 356 355 355 356 357 358 358 358 358 358 360 361 360 360 359 359 358 357 355 354 351 347 343 341 343 346 346 344 344 344 346 346 346 343 341 338 336 338 339
351 352 353 353 353 352 350 350 351 352 352 354 354 354 354 355 354 354 355 355 355 354 355 355 355 355 354 354 354 354 354 354 353 354 355 354 355 356 356 354 355 356 357 356 356 356 355 355 356 356 357 358 358 359 358 359 361 361 360 360 360 360 359 358 357 355 353 352 349 345 342 341 341 343 345 346 346 347 347 346 344 340 336 338 339
351 352 352 352 352 351 351 350 352 352 353 353 353 354 354 355 355 355 355 355 355 354 354 354 355 355 355 354 355 354 354 354 354 355 355 355 356 357 357 356 355 356 357 357 357 356 355 355 356 356 357 358 359 360 359 360 360 361 361 360 360 360 360 358 357 356 354 353 352 350 346 341 336 337 341 345 347 347 347 347 346 344 339 338 340
351 352 352 352 352 352 351 351 351 352 353 354 353 354 355 355 355 355 355 355 355 355 354 354 354 355 355 355 355 355 354 354 355 355 355 356 357 357 358 358 357 355 356 357 358 357 355 356 356 357 358 358 359 359 359 359 360 361 361 361 360 360 359 359 357 356 355 354 353 352 350 347 341 337 336 339 344 347 348 347 347 346 343 340 339
352 351 351 352 352 352 351 350 351 353 353 354 354 354 355 355 355 354 355 354 355 356 355 354 355 355 356 355 355 355 355 355 355 355 356 356 357 358 358 359 359 356 356 356 357 357 357 357 358 357 358 358 359 359 359 360 360 360 360 360 361 360 360 359 358 357 356 355 354 353 352 351 348 345 341 337 339 343 346 347 347 346 346 343 341
352 351 352 352 351 353 352 351 352 352 353 354 355 355 356 355 356 355 355 355 355 356 356 356 356 355 356 356 356 356 356 356 356 356 356 356 356 358 358 359 360 358 356 355 356 357 357 358 358 358 358 358 359 359 359 360 360 359 360 360 361 360 360 359 358 358 357 355 355 354 354 353 351 350 348 343 340 340 341 344 345 345 346 346 344
353 352 352 353 353 355 354 353 351 352 354 354 354 356 356 356 356 356 355 356 355 356 356 356 356 356 356 357 356 357 356 357 357 357 357 357 357 358 358 359 360 359 358 356 356 356 357 357 357 357 358 357 358 359 359 360 359 359 359 359 359 360 360 360 359 358 358 356 355 354 353 353 352 351 351 349 346 342 340 341 342 344 344 345 345
354 353 353 354 354 356 356 354 351 351 353 354 354 355 356 356 357 357 357 356 355 356 356 356 357 357 356 357 357 357 357 357 357 357 357 357 357 358 357 358 359 359 359 358 357 356 357 357 357 356 357 358 358 358 359 359 360 360 360 359 359 360 359 360 360 359 358 357 355 355 353 353 353 352 351 351 349 347 344 343 343 342 343 344 345
354 352 352 355 355 356 356 354 351 351 353 354 353 355 356 357 358 357 358 357 356 357 357 356 357 357 357 357 357 357 357 357 357 357 358 358 358 358 358 358 358 358 360 359 358 357 357 358 358 358 358 358 358 359 359 360 360 360 361 360 360 360 360 360 360 359 359 358 356 356 355 354 353 353 352 352 351 349 348 346 345 343 343 344 345
352 353 353 355 354 355 356 354 352 351 352 354 354 354 356 357 358 358 358 359 358 358 357 358 357 358 358 358 357 358 358 357 358 357 357 358 358 359 358 358 358 358 358 359 359 359 358 358 359 360 360 359 359 359 360 360 360 361 361 361 361 361 360 360 360 360 360 359 359 358 356 355 354 353 352 352 351 350 349 348 347 346 345 345 345
351 351 353 354 353 355 356 354 353 351 352 355 355 356 357 358 358 359 359 360 359 359 358 358 358 358 358 358 358 358 358 358 358 357 358 358 358 359 359 359 358 357 357 358 359 359 359 358 359 359 360 360 360 359 359 359 360 361 361 361 361 361 362 361 361 360 360 359 359 359 358 357 355 355 353 353 351 351 350 349 348 347 347 346 345
349 350 352 353 353 354 353 355 354 351 352 355 356 356 358 358 359 359 361 361 360 360 360 359 359 359 359 358 358 359 359 358 358 358 358 359 358 359 359 358 358 358 357 357 358 358 359 358 358 358 358 359 360 359 359 359 359 360 360 361 361 361 362 361 361 360 360 360 359 359 358 358 357 357 355 354 353 352 352 351 349 349 348 346 346
348 349 349 351 352 353 353 355 354 352 351 355 356 359 358 359 360 359 361 362 361 362 361 360 360 360 359 359 359 359 359 358 358 358 358 358 359 358 359 359 359 358 357 356 356 357 357 357 358 358 357 357 358 358 359 359 359 359 359 360 360 360 361 361 361 361 360 360 360 359 359 358 358 358 357 356 355 355 353 352 351 351 349 348 347
347 348 349 351 353 354 354 353 352 351 351 354 357 359 359 360 361 360 361 363 364 364 363 362 362 361 360 360 359 359 359 359 358 359 358 358 358 358 359 358 358 358 357 357 356 356 356 357 357 358 358 357 356 357 357 358 359 359 359 359 359 360 360 360 361 361 360 360 359 359 359 358 358 358 358 358 357 357 356 354 354 353 351 350 349
348 348 349 350 352 354 355 353 351 351 353 354 356 359 360 361 361 362 362 363 364 365 364 364 364 363 362 361 360 360 360 359 359 359 359 359 358 358 358 358 357 357 357 356 357 356 356 355 356 357 358 358 357 356 357 357 357 358 359 360 359 359 360 360 360 360 360 360 360 359 359 359 358 358 358 358 358 357 357 356 355 354 353 352 351
348 348 349 350 352 355 354 352 353 354 354 355 357 358 360 361 361 362 362 363 365 365 366 366 365 365 364 362 362 361 360 359 359 359 359 359 358 358 358 357 357 356 356 355 356 356 356 355 355 356 356 357 357 357 357 357 356 356 357 359 360 360 359 359 359 360 360 359 360 360 359 359 359 358 358 358 358 357 357 357 356 355 354 354 352
351 351 352 354 356 357 355 352 354 356 357 359 359 361 361 362 362 363 363 363 364 365 366 367 367 366 366 364 363 362 361 361 360 359 359 359 359 358 358 357 357 356 355 355 355 356 356 355 355 355 356 356 356 357 358 358 357 357 358 358 359 360 360 359 359 359 359 359 360 359 360 359 359 358 358 358 358 358 358 356 355 355 355 354 353
357 358 363 364 359 356 354 353 354 357 359 361 362 363 364 364 364 364 363 363 363 364 366 367 367 367 367 366 365 363 362 361 360 360 360 360 359 359 358 358 357 356 356 355 354 355 355 355 355 355 354 355 355 356 357 357 357 358 358 359 359 360 359 360 359 359 359 359 359 359 360 360 360 359 359 358 359 359 358 357 356 356 354 354 354
364 361 362 362 359 356 356 356 356 357 359 360 362 364 366 365 365 364 364 364 364 363 365 366 367 367 367 367 366 364 363 362 361 361 360 360 360 360 359 358 357 357 356 355 355 355 355 356 357 356 356 355 355 355 356 357 357 357 359 359 360 359 359 359 359 359 359 359 359 359 359 359 360 360 359 359 359 359 358 358 357 356 356 355 355
374 366 360 359 362 363 361 360 359 360 360 360 363 364 366 366 366 365 365 364 364 363 364 365 366 367 367 367 367 366 365 364 362 361 361 360 360 359 360 359 358 358 357 356 356 355 355 356 357 357 358 356 356 356 357 358 358 359 358 360 360 359 359 359 359 359 359 359 359 359 359 359 359 358 359 359 359 359 359 358 357 357 357 356 355
369 368 364 360 361 361 360 360 360 361 361 362 362 364 365 365 365 366 365 365 364 365 364 364 366 366 366 367 367 367 366 364 364 362 362 361 360 360 360 360 359 358 357 357 356 356 356 356 357 358 358 359 359 359 358 359 360 360 360 360 361 360 359 358 359 359 359 359 359 359 359 359 358 359 358 359 359 359 358 358 357 357 356 356 357
366 366 364 363 363 363 363 365 365 364 363 363 363 363 364 365 365 365 365 365 364 365 364 364 364 365 365 366 367 367 366 366 365 363 363 362 361 360 360 359 360 359 358 358 357 357 357 356 356 357 358 360 360 361 360 360 360 360 362 361 361 361 360 360 359 359 360 359 360 360 360 359 360 360 359 360 359 359 359 359 358 356 356 356 357
367 367 366 363 364 364 365 366 367 367 365 365 364 362 361 363 363 362 363 364 365 365 364 364 364 364 365 366 366 367 367 366 365 364 364 364 362 361 360 360 360 360 359 358 358 357 357 357 357 357 358 359 360 360 361 361 361 361 361 361 362 362 361 361 360 360 360 360 360 361 361 361 361 361 361 361 360 360 360 360 359 358 357 358 358
364 366 364 362 362 364 365 366 366 366 366 365 365 363 362 362 361 360 362 362 363 364 364 364 364 365 365 365 367 366 366 367 366 365 365 364 364 362 361 360 361 360 359 359 358 358 357 358 358 358 358 358 359 359 360 361 361 361 362 362 363 363 363 362 362 361 361 361 361 362 362 362 362 362 362 362 362 362 361 360 361 360 360 360 359
361 364 364 362 361 362 363 364 366 366 366 365 365 364 364 364 363 362 362 360 361 362 362 363 365 366 365 365 366 367 367 367 366 366 365 365 364 363 362 362 361 361 361 360 360 360 358 359 359 360 360 360 359 360 360 360 361 361 362 362 362 363 363 363 362 362 362 362 362 362 362 362 362 362 362 362 361 362 361 360 361 360 360 360 358
359 361 362 360 360 361 362 362 363 365 365 367 367 366 364 364 364 363 364 363 361 359 360 362 364 366 367 366 366 366 367 367 366 366 366 366 366 365 365 363 362 361 362 362 362 361 361 360 361 361 363 364 363 362 363 362 362 363 363 363 364 363 364 363 362 361 361 361 361 361 361 361 362 361 361 362 361 361 361 360 361 360 359 358 356
358 359 359 359 359 360 360 360 361 363 364 365 367 368 367 366 365 364 365 366 363 359 360 362 364 366 367 368 367 368 368 367 367 367 367 367 367 367 366 365 364 364 364 364 364 364 363 362 362 363 364 366 366 366 364 364 364 364 363 364 364 363 362 360 359 359 358 358 358 359 359 360 360 359 358 358 357 356 354 353 352 350 347 345 345
358 359 358 359 359 359 358 359 359 360 362 364 365 367 368 367 368 367 367 367 366 362 360 361 364 366 367 369 370 369 369 369 369 368 369 368 369 368 368 367 366 365 366 366 365 365 365 364 363 364 364 363 362 361 361 362 363 364 363 363 362 360 359 358 358 358 357 357 356 355 353 351 348 346 345 343 341 340 338 338 336 336 335 334 335
357 359 357 357 356 356 356 356 357 358 360 362 364 366 366 367 369 370 369 368 366 364 361 361 364 366 368 369 370 371 371 371 371 371 371 370 370 371 370 369 369 368 367 367 366 367 367 366 365 364 360 356 354 354 354 355 356 357 356 355 354 353 351 351 350 348 347 344 342 340 338 336 335 334 333 333 333 332 333 333 333 333 333 332 332
356 357 358 356 354 354 354 353 355 356 357 360 363 364 365 366 369 371 371 371 368 363 362 363 364 367 367 369 371 372 373 372 372 371 371 371 371 371 371 370 370 369 369 369 368 368 367 367 366 361 353 346 344 345 346 345 345 346 345 343 341 340 338 337 335 334 333 333 332 332 332 332 332 332 332 332 333 333 333 334 334 333 333 332 331
355 356 357 356 354 354 354 354 354 355 356 359 361 361 363 365 367 369 372 371 368 365 364 365 366 368 369 370 371 373 372 370 367 365 365 365 367 369 370 371 371 371 371 369 370 369 369 368 366 360 352 344 340 340 340 340 337 337 336 335 333 332 332 331 332 332 332 332 332 332 333 333 333 333 333 333 334 333 333 333 332 332 332 331 331
355 355 355 355 354 355 353 353 354 354 354 356 358 359 361 364 366 368 370 370 369 367 366 367 368 369 369 370 372 370 367 364 361 358 356 354 354 359 365 366 369 370 370 370 370 370 369 368 364 356 352 349 345 339 336 335 333 332 332 332 332 332 332 332 333 332 332 332 333 333 334 333 332 332 332 332 332 332 332 333 333 333 332 331 331
354 354 354 353 354 353 353 353 353 353 353 355 357 358 359 361 365 368 368 370 370 369 367 368 369 369 369 370 368 363 359 356 355 355 355 351 348 349 354 358 362 366 368 369 370 367 366 367 364 356 348 345 343 337 332 331 331 331 332 332 333 333 333 332 332 331 331 333 333 332 331 331 332 332 332 332 333 332 332 332 332 332 332 331 331
Wind_Speed
20 27 31 33 33 34 33 33 37 38 37 39 39 39 39 37 36 36 36 38 37 36 34 32 32 31 30 30 30 28 26 25 23 23 24 24 23 21 19 16 14 14 17 18 17 16 14 12 11 11 10 8 6 7 8 9 8 8 7 7 6 6 9 11 12 16 19 16 14 15 16 18 17 15 14 13 12 12 11 11 12 11 10 9 9
17 21 27 31 32 34 33 32 36 37 37 40 42 41 40 39 38 37 37 38 39 38 36 35 35 34 32 32 31 29 27 27 26 25 26 25 23 22 20 17 16 15 15 17 18 18 16 14 12 12 11 8 7 7 8 10 10 9 9 9 6 5 7 9 9 10 11 11 11 10 9 12 15 16 15 15 14 14 13 12 12 11 10 9 9
17 18 22 29 32 34 33 31 36 38 38 41 42 42 41 39 38 37 38 39 39 39 37 35 35 35 33 32 31 30 27 27 25 22 23 27 25 23 22 20 18 17 15 16 18 18 17 16 14 13 11 10 10 9 10 12 12 11 11 10 6 5 8 9 8 7 9 10 8 6 5 6 8 11 14 17 17 16 14 13 12 12 10 9 9
19 19 18 25 30 33 33 31 35 38 37 39 40 40 41 40 40 39 39 40 39 40 38 35 34 34 32 31 31 29 27 27 26 20 19 24 27 25 24 22 20 18 16 15 17 19 19 18 16 14 13 12 11 11 12 13 13 12 12 11 8 8 9 9 7 7 11 11 6 2 3 4 3 7 13 17 18 17 16 15 14 12 12 11 11
20 21 19 21 26 32 34 33 35 37 37 39 41 41 41 42 43 41 41 40 40 40 39 35 33 33 30 28 28 26 24 26 28 24 20 20 24 27 25 23 22 20 17 16 16 18 20 19 18 16 14 14 12 11 13 13 12 11 11 11 10 9 9 9 8 6 9 10 7 3 3 2 2 6 9 11 16 19 18 18 16 14 14 13 12
20 22 21 20 24 31 34 34 35 36 38 41 43 43 42 43 44 43 42 41 40 41 40 37 35 34 32 30 29 27 25 27 30 30 27 22 21 25 25 24 23 22 19 17 16 18 20 21 20 18 16 15 14 12 12 13 12 12 12 10 10 9 9 10 10 7 7 8 8 5 4 3 4 7 6 3 10 17 20 19 17 16 16 16 15
19 20 20 20 23 26 30 34 36 37 40 42 42 43 42 42 43 43 42 41 40 41 41 39 37 36 35 34 32 30 28 30 32 33 31 26 22 22 25 26 25 23 20 18 16 18 20 21 21 20 18 16 15 13 13 14 12 12 13 11 10 10 10 12 13 10 9 9 7 6 5 5 8 9 5 4 5 9 17 20 18 18 18 18 18
18 18 20 20 22 25 29 36 39 39 40 41 41 41 41 41 43 44 43 41 41 42 42 41 39 38 37 35 33 33 32 31 32 33 32 28 24 22 25 28 26 24 22 19 17 17 19 21 21 20 19 17 16 15 15 15 13 12 13 13 12 12 12 14 15 14 13 12 8 7 7 7 10 11 9 8 6 3 8 13 14 18 20 21 20
19 19 21 21 23 29 33 37 40 40 40 41 41 41 41 41 42 42 42 41 41 43 43 42 41 39 37 35 33 33 33 31 31 33 33 30 26 24 26 29 28 25 23 20 18 18 19 21 20 20 20 18 17 16 15 16 14 13 14 14 13 13 13 14 16 16 14 13 11 10 9 9 10 10 10 9 7 5 4 5 9 12 15 20 22
19 20 20 21 26 33 35 36 38 39 40 42 41 41 41 41 41 41 41 41 42 44 44 42 41 39 37 36 34 33 32 30 30 31 33 33 29 26 27 30 29 27 24 21 20 18 19 21 21 21 21 19 18 17 16 17 16 15 15 15 14 14 14 15 16 15 14 13 13 14 13 11 10 8 8 9 7 5 3 3 9 12 11 16 22
18 19 18 20 27 33 34 34 35 37 38 40 39 39 40 41 41 42 41 42 43 44 44 43 41 40 39 38 36 34 32 31 31 31 33 34 32 29 29 31 31 29 26 23 22 20 19 20 21 21 21 21 19 18 18 18 18 17 16 15 15 15 15 16 15 14 14 13 13 15 16 15 12 10 11 12 8 5 4 2 7 13 14 16 21
17 17 17 17 20 25 29 31 33 34 35 37 38 39 40 40 42 41 41 42 43 44 44 43 41 40 40 39 37 35 34 33 34 34 34 35 34 31 29 31 32 30 28 26 24 22 21 21 21 21 22 22 21 20 18 18 18 18 17 16 17 17 16 16 16 15 15 13 12 15 17 16 15 13 14 16 13 9 7 5 5 8 11 14 19
17 16 16 16 16 18 22 28 31 32 34 37 38 38 39 40 42 41 41 42 43 43 44 43 42 41 40 40 39 36 35 34 35 36 36 36 35 33 31 31 32 32 31 29 27 24 23 23 23 23 22 22 22 21 19 18 19 19 19 18 18 19 17 15 17 18 16 14 12 14 15 16 15 13 14 16 14 11 8 7 5 4 5 9 13
17 16 16 16 16 16 20 27 29 31 34 37 38 39 39 39 41 42 41 42 43 43 44 44 44 43 42 41 39 37 35 34 34 35 37 37 35 34 33 32 32 33 33 32 29 26 25 25 25 24 23 22 22 22 21 19 19 20 20 19 19 20 18 15 16 18 18 15 13 13 14 14 14 14 15 15 14 12 9 8 7 3 2 5 8
16 16 18 18 18 18 21 27 29 31 35 37 38 39 39 39 41 42 41 42 42 42 43 44 44 44 42 41 39 38 36 35 34 34 36 37 36 35 35 34 33 33 34 33 31 28 27 26 26 25 24 23 22 23 23 21 20 20 21 21 20 20 19 17 15 18 20 18 16 16 15 13 13 16 16 14 13 12 10 11 10 5 1 1 4
16 16 18 18 18 19 23 27 29 32 35 36 38 39 40 40 42 43 43 42 43 43 44 44 44 43 42 41 40 38 37 35 34 32 33 35 36 35 35 35 35 34 33 33 32 30 29 28 28 27 26 25 24 23 24 24 22 21 22 23 22 21 21 19 17 17 21 21 18 17 16 13 12 16 16 14 14 13 12 12 13 11 7 2 1
17 17 18 18 18 20 24 27 30 32 34 36 39 41 42 42 42 42 42 42 43 43 44 44 43 42 41 41 40 39 38 37 36 35 33 34 35 35 35 35 35 34 33 33 33 32 30 29 29 29 28 27 26 25 25 25 25 24 24 24 24 23 22 21 19 18 20 22 21 19 18 15 14 16 16 14 14 14 14 14 14 14 12 6 3
19 19 18 17 17 19 24 28 32 34 36 38 40 42 43 43 43 43 41 42 43 42 42 42 41 41 41 41 41 40 39 39 38 37 35 33 34 35 36 35 35 34 33 33 33 33 32 31 30 30 30 29 28 26 25 26 27 26 26 26 25 24 24 23 21 20 19 21 22 22 21 20 17 17 18 16 16 15 16 17 16 16 16 13 9
17 16 15 15 16 19 24 28 32 35 37 39 40 40 40 41 42 43 43 44 44 42 40 40 40 40 40 41 41 40 40 39 38 37 35 34 35 35 36 36 35 34 33 33 33 34 34 33 31 31 31 31 30 29 27 27 27 28 28 27 26 26 26 25 24 23 21 20 21 23 24 24 22 21 20 19 18 16 16 17 18 18 18 18 17
14 14 15 16 17 20 27 30 32 35 37 37 37 37 38 39 40 42 42 42 43 42 40 39 39 39 38 38 39 39 39 38 37 36 35 35 35 35 35 36 35 34 33 33 34 34 35 35 33 32 32 32 32 31 30 29 29 30 30 30 28 27 28 28 27 25 24 22 22 23 24 26 25 24 24 23 21 20 18 17 17 19 19 19 21
16 15 16 17 16 20 27 31 32 34 34 34 35 37 38 39 39 40 40 40 41 42 42 40 40 39 38 38 39 39 38 38 37 36 35 35 35 34 35 35 35 34 34 34 35 35 36 36 35 34 33 32 33 33 32 32 32 32 32 31 31 30 29 30 29 28 26 25 25 24 24 25 26 26 27 27 26 24 22 21 19 19 21 21 22
18 17 16 16 16 18 24 28 29 29 29 32 34 35 36 37 38 39 40 40 42 42 42 42 41 40 40 40 40 39 38 38 37 36 36 36 35 35 35 35 35 36 35 35 35 36 36 36 36 35 34 33 34 34 34 33 33 33 33 33 32 32 32 32 31 30 30 29 28 27 27 25 25 26 28 30 31 29 27 25 24 22 23 24 23
19 18 16 16 15 18 22 25 27 28 29 31 32 33 35 37 38 38 39 40 42 42 43 42 41 40 41 40 39 38 38 38 37 37 37 37 37 36 35 35 37 38 37 36 36 36 36 37 36 36 35 35 35 35 35 35 35 35 34 34 34 34 34 33 33 33 33 31 31 31 30 29 27 27 28 30 31 32 31 30 29 27 26 27 26
18 17 16 15 14 15 17 19 22 26 29 31 32 33 34 35 36 37 39 41 41 41 41 40 40 40 40 38 37 37 37 37 37 37 38 38 37 36 35 36 37 37 38 38 38 37 37 37 37 36 36 36 36 36 36 36 36 36 36 36 35 35 35 35 36 35 35 34 34 34 33 32 31 31 31 31 31 32 33 33 33 32 31 30 29
17 16 15 14 14 14 14 15 20 25 28 31 32 32 33 34 36 38 39 40 40 39 39 40 40 39 38 37 37 36 36 37 37 37 37 37 37 36 36 36 36 36 37 38 38 38 37 37 38 38 38 38 38 38 38 38 38 38 38 37 37 36 36 37 37 37 36 36 36 36 36 35 34 34 34 33 33 33 33 34 35 35 34 32 31
17 17 15 15 15 15 15 16 20 25 28 30 32 32 32 34 36 38 38 39 40 39 39 39 39 38 38 38 38 38 38 39 39 37 37 36 36 36 36 36 36 36 37 37 38 38 38 39 40 40 40 40 40 39 39 39 39 39 38 38 38 37 37 37 38 38 38 37 38 38 38 37 36 36 37 36 35 34 34 35 36 36 36 34 32
17 16 16 16 15 16 17 17 20 25 28 30 31 32 32 33 34 36 36 37 39 39 39 39 38 38 38 39 40 41 40 40 39 39 38 37 37 37 37 37 37 37 36 37 37 38 39 40 41 41 41 41 41 40 40 40 40 39 39 38 38 38 38 38 38 39 39 39 39 39 39 38 37 38 39 38 36 36 36 36 37 37 36 33 32
16 16 17 18 17 17 18 17 19 24 28 29 31 32 32 33 33 34 35 36 37 38 38 38 38 38 39 40 41 41 40 39 39 39 39 38 38 38 38 38 38 37 37 37 38 39 40 40 40 41 41 41 40 40 40 40 40 40 39 39 40 39 39 39 39 39 39 39 39 39 39 39 39 39 40 39 38 38 37 37 38 37 35 33 32
17 17 17 18 18 17 17 17 18 23 26 27 29 31 32 32 33 34 35 36 36 36 37 37 37 38 39 39 39 38 38 38 38 38 39 39 39 38 38 38 38 39 39 38 38 39 39 39 40 40 41 40 39 40 41 42 42 41 41 41 40 40 40 40 39 39 38 38 38 39 40 40 40 40 41 41 41 40 39 38 38 37 36 34 33
17 17 16 17 18 18 18 18 17 20 25 27 28 31 33 33 33 34 35 35 36 35 35 36 36 38 39 38 37 37 37 37 37 38 39 39 39 38 38 39 39 40 40 40 39 38 38 39 40 40 40 39 39 40 43 44 44 43 42 41 40 40 40 39 39 38 37 38 38 39 40 41 41 41 42 42 43 42 42 42 41 39 38 36 35
18 18 17 16 15 15 16 17 17 21 25 27 28 31 32 32 32 34 34 35 36 36 36 37 37 38 38 38 38 37 37 38 39 39 39 40 40 39 39 39 40 40 40 40 39 38 38 39 39 40 40 40 41 42 44 45 46 45 44 42 40 40 39 38 38 37 37 38 38 39 39 39 40 41 42 44 44 45 45 45 44 43 42 40 38
18 18 16 15 14 14 15 16 17 22 26 27 28 29 30 31 32 33 34 34 35 36 36 37 37 37 37 37 37 37 37 38 39 40 40 40 40 39 39 39 39 40 40 40 40 40 40 39 39 40 40 41 42 44 45 46 46 46 46 43 41 39 38 37 36 37 38 38 37 38 38 38 39 40 42 43 44 45 47 47 48 47 46 46 45
17 16 15 15 14 14 15 17 19 24 28 30 31 30 30 32 33 33 34 34 34 35 36 36 37 37 37 38 38 37 37 38 38 39 39 38 38 39 40 40 39 39 38 38 40 40 40 40 39 39 40 42 44 45 46 46 46 47 46 45 42 39 38 37 37 37 38 38 38 38 37 38 39 39 40 41 42 44 46 47 49 49 49 49 49
15 15 14 14 13 12 15 19 23 28 31 33 33 33 34 34 34 34 35 34 34 34 35 35 36 37 37 38 38 37 38 38 38 38 37 37 38 39 40 39 38 37 37 38 39 40 40 41 41 41 42 42 43 45 45 46 46 46 46 45 44 41 38 38 38 38 38 38 39 38 38 39 39 39 38 39 40 42 43 44 47 49 50 52 52
11 12 12 12 11 11 12 17 23 26 27 29 30 31 31 32 33 34 34 35 34 34 34 35 36 37 37 38 38 38 38 38 38 38 37 38 39 39 39 39 37 37 38 40 40 39 40 41 42 43 42 41 43 45 44 45 46 46 45 45 45 43 40 38 39 39 39 40 40 39 39 40 40 40 39 38 39 39 39 41 42 45 48 51 53
11 11 11 12 13 14 15 18 21 23 24 25 27 27 27 28 31 33 33 34 34 32 33 34 35 36 37 37 37 37 37 37 37 37 38 39 39 39 40 39 37 37 38 38 39 39 40 40 41 42 42 42 44 44 44 44 45 45 44 44 44 44 41 40 39 39 39 40 40 40 40 40 41 41 40 39 39 38 39 39 40 42 44 46 52
7 9 11 13 16 18 19 20 20 21 23 24 25 26 26 26 28 30 30 31 31 31 32 33 35 36 37 38 38 37 37 37 37 37 38 39 39 40 39 38 37 37 37 37 39 40 40 40 40 40 41 43 44 43 42 43 43 42 43 43 43 43 42 41 41 41 40 40 40 41 41 41 41 42 40 40 39 38 39 40 39 40 40 42 51
6 7 8 10 14 17 19 21 21 21 23 24 24 25 25 25 25 27 28 28 29 30 31 33 34 36 37 38 39 38 38 38 37 37 38 39 39 39 38 37 37 37 37 38 38 38 38 38 39 40 41 42 42 41 39 39 40 40 41 42 42 42 41 41 41 41 41 41 41 42 42 41 43 43 41 41 40 38 40 41 40 39 38 43 50
12 13 12 12 14 15 14 14 14 12 14 20 25 26 25 23 25 26 26 26 28 31 32 32 34 36 38 39 40 40 39 39 38 38 39 39 38 38 37 37 37 37 37 37 35 34 35 37 38 38 39 39 38 36 34 35 37 38 39 40 41 40 39 39 39 39 41 42 41 41 40 41 43 43 42 42 40 39 41 42 42 39 39 45 48
14 16 18 19 19 18 15 14 12 9 5 9 18 24 24 24 25 26 25 27 31 33 33 33 34 36 38 40 40 41 40 39 39 39 39 39 38 37 36 36 36 36 36 35 34 33 33 35 35 35 34 34 34 32 31 31 32 33 35 38 40 41 39 38 38 38 39 39 39 39 39 40 42 43 44 43 41 41 42 42 43 40 40 46 47
16 18 20 21 21 20 18 17 17 13 9 5 6 14 18 20 21 22 26 31 33 33 32 32 33 35 37 39 40 41 41 40 40 39 38 37 37 36 35 35 35 34 34 34 33 33 32 32 32 32 31 31 30 30 31 31 30 30 31 33 38 41 40 39 38 39 38 37 37 37 38 38 39 40 41 40 39 40 40 42 43 43 44 48 47
19 21 21 19 19 20 20 19 18 15 11 8 4 4 6 10 15 20 26 29 29 30 31 31 31 34 35 37 38 39 40 40 39 38 36 34 34 34 34 34 33 33 33 33 32 32 31 30 30 30 30 30 29 30 31 31 31 31 31 32 35 38 38 38 39 37 36 35 35 35 34 33 32 32 33 34 35 36 36 39 42 44 47 49 48
16 18 20 18 16 16 17 18 18 16 13 11 7 4 2 2 9 15 18 20 22 25 27 28 30 32 34 35 36 37 38 37 36 36 34 33 32 33 32 33 32 31 30 30 30 30 29 28 27 26 26 27 28 30 31 32 32 32 32 32 32 33 34 37 37 34 31 29 28 26 24 24 24 25 27 28 30 31 32 35 38 40 43 45 45
13 15 17 17 14 12 14 16 17 17 16 14 11 8 6 6 8 9 10 14 19 23 25 26 28 31 32 33 35 35 36 36 35 35 34 32 31 31 31 32 32 30 28 27 27 27 27 25 24 22 20 21 24 26 28 30 30 30 30 30 30 31 33 34 34 32 28 25 21 20 19 20 21 22 23 25 26 28 30 32 35 36 38 40 40
13 15 17 16 13 12 14 15 17 18 17 16 14 10 8 9 10 9 9 12 18 22 24 26 27 28 30 31 31 32 34 34 33 34 33 31 31 30 29 29 30 29 28 26 25 26 25 24 22 19 17 17 20 21 22 23 24 25 26 27 28 29 30 31 30 29 26 24 23 24 24 25 25 26 26 27 28 30 31 32 34 35 35 37 38
11 13 14 15 15 15 14 14 16 17 17 17 16 13 11 10 9 8 10 13 17 22 25 26 26 27 28 28 29 29 31 31 32 33 33 32 32 31 29 29 29 28 27 26 25 25 24 23 21 20 18 16 15 15 14 13 14 15 16 18 19 19 19 19 19 19 19 19 19 20 21 21 21 21 22 23 24 25 26 27 28 29 30 31 32
10 11 13 14 13 11 10 10 12 15 17 17 16 14 13 12 9 6 10 15 18 23 25 25 25 25 26 27 28 27 27 27 28 30 31 31 31 31 29 28 28 27 25 24 23 23 22 21 19 19 18 16 14 14 13 12 11 11 10 10 10 9 8 8 8 10 11 11 12 13 14 14 15 16 17 17 18 19 21 22 23 24 26 27 27
12 12 13 12 11 9 8 9 10 14 16 16 15 15 14 12 10 7 8 14 19 22 24 24 24 25 25 26 26 26 26 25 23 23 23 23 24 27 27 28 28 27 25 24 22 22 23 22 21 20 18 17 15 15 15 14 13 12 12 10 9 7 7 6 6 6 7 7 8 9 9 9 10 12 13 14 16 18 21 23 23 24 26 27 27
10 11 11 10 10 9 8 9 10 12 14 14 14 14 13 11 9 8 5 11 17 19 21 22 23 24 24 24 24 25 26 25 22 19 17 15 15 18 21 24 26 28 27 26 25 25 25 23 22 23 23 21 19 18 16 15 13 11 10 9 8 7 6 5 3 2 1 1 2 4 7 9 12 15 17 19 21 23 24 26 27 27 28 28 28
8 9 9 9 8 7 7 8 9 10 11 12 12 12 12 10 8 6 4 7 14 16 18 20 22 22 23 23 24 25 26 26 24 23 20 16 11 11 15 18 21 23 25 26 26 26 25 25 24 23 23 22 21 20 17 15 13 11 9 9 8 7 6 6 7 6 5 6 8 11 13 15 16 17 18 19 20 22 24 26 28 29 29 28 28
7 8 8 7 6 6 7 9 10 8 8 9 9 10 11 10 8 6 4 5 11 15 15 16 18 20 22 25 26 26 25 26 25 25 25 22 19 14 10 11 14 17 19 21 22 22 22 25 25 23 21 19 19 18 17 15 13 12 11 10 10 9 10 10 10 9 10 11 14 15 16 15 15 14 14 16 18 20 22 24 25 27 27 28 28
Wind_Direction
183 182 182 182 185 184 180 178 181 183 185 186 185 186 188 189 188 189 191 191 190 190 191 191 191 191 194 197 198 200 204 206 207 209 212 213 212 213 212 213 213 207 208 206 199 198 193 186 189 189 185 184 196 200 190 187 190 186 172 164 157 133 121 127 128 123 120 123 140 161 178 186 185 184 185 183 180 183 187 192 196 197 198 200 203
182 183 183 183 185 186 186 180 180 183 184 186 186 187 187 188 189 189 189 190 191 192 191 192 191 190 192 194 196 199 202 203 207 211 215 215 211 211 211 212 213 210 208 205 201 200 192 185 192 195 191 193 195 193 191 188 187 184 172 171 170 152 141 141 146 135 122 127 132 134 154 177 189 192 190 188 187 185 185 189 191 193 196 198 203
183 186 185 186 187 187 188 185 183 184 185 186 187 187 188 188 188 189 189 190 192 193 192 193 193 193 194 195 195 199 200 201 206 209 213 213 209 209 212 212 213 211 209 207 203 201 195 190 194 200 200 201 201 192 187 186 188 189 183 183 188 172 152 147 162 159 144 144 132 123 135 151 181 196 197 196 192 187 186 187 187 190 192 192 197
183 186 185 186 187 188 189 187 185 185 185 186 186 186 188 189 189 189 189 190 191 193 194 193 192 193 196 197 197 200 200 202 206 205 204 206 207 210 212 212 213 211 210 210 207 201 198 196 197 204 205 205 206 195 187 187 187 187 185 189 190 172 154 150 163 162 156 156 140 119 143 132 160 192 197 203 198 191 192 193 189 187 189 192 197
182 185 185 184 185 188 189 186 184 185 186 186 186 186 188 189 190 190 190 190 191 192 193 192 190 190 191 192 194 197 199 202 207 208 204 202 205 207 210 212 212 211 211 213 212 205 200 199 199 202 205 207 211 204 195 192 189 185 182 185 184 174 165 159 157 154 162 170 167 144 128 137 204 180 179 199 202 197 197 197 195 192 191 192 198
184 185 185 184 185 186 187 185 183 185 187 187 187 188 188 189 189 190 190 190 190 190 191 191 189 188 186 184 186 189 193 198 204 207 206 203 203 204 207 210 210 210 211 213 215 209 203 201 200 203 207 210 215 212 204 200 196 195 191 190 188 182 179 169 163 163 165 169 173 167 172 210 196 161 146 171 199 204 206 202 200 199 197 196 198
187 188 187 185 184 183 185 185 183 185 188 188 188 189 189 188 188 188 189 189 189 189 189 190 189 189 189 188 189 189 192 196 201 204 204 204 205 206 207 207 209 209 210 213 216 213 208 204 203 207 210 211 215 214 210 206 201 201 198 196 196 194 190 180 174 173 168 167 169 162 174 196 179 166 158 149 168 208 214 208 206 207 206 203 201
186 188 188 187 187 185 184 186 186 185 186 186 187 188 187 187 186 186 187 187 187 188 188 190 191 192 193 194 194 196 197 198 200 203 204 205 207 210 209 206 207 209 211 214 216 214 211 207 206 209 210 211 215 216 213 209 203 201 199 198 201 201 198 189 182 178 176 176 173 162 159 165 173 178 178 166 145 161 207 206 207 213 214 209 205
186 188 189 188 188 188 186 186 187 185 184 185 187 187 187 186 185 185 185 185 187 188 189 191 193 194 195 196 198 200 202 201 200 203 205 206 208 211 210 206 205 208 212 216 218 216 212 208 206 207 209 211 216 218 214 209 203 200 199 201 204 201 198 196 191 189 191 188 179 169 161 154 161 178 182 173 158 150 181 198 190 200 211 209 206
189 190 191 190 188 189 187 185 186 185 184 185 186 186 186 186 184 184 185 185 187 189 189 191 193 195 196 198 199 200 201 201 200 202 204 206 208 209 208 207 206 207 211 216 220 219 213 209 207 208 210 212 216 219 215 209 206 203 204 207 209 202 196 197 198 197 201 202 192 180 172 164 158 165 181 181 170 162 176 193 176 180 198 206 206
189 190 191 191 188 188 186 185 185 184 184 184 184 185 185 185 184 185 185 186 187 189 190 191 193 195 197 199 200 199 198 197 196 198 202 205 207 207 207 207 207 207 210 216 220 220 216 210 209 210 212 213 216 219 217 211 208 207 209 213 215 211 201 198 201 200 201 205 205 195 186 181 177 179 187 187 184 173 161 182 189 192 203 209 208
186 188 189 189 187 187 185 186 185 183 182 182 183 183 184 185 185 185 186 187 188 189 190 191 193 196 199 200 201 201 198 196 196 197 199 202 205 206 205 206 206 207 209 214 218 218 216 211 211 213 215 216 217 219 220 215 211 211 213 216 217 215 211 207 207 205 203 205 210 207 202 198 196 199 196 193 197 194 185 202 209 198 211 219 214
184 185 185 186 186 186 185 185 184 182 181 182 182 182 183 185 185 185 186 188 189 190 190 192 194 196 198 200 202 203 201 199 198 198 199 200 203 204 205 204 205 205 207 212 215 215 214 211 211 214 217 219 219 218 221 220 216 214 216 219 216 214 218 221 217 210 207 207 208 208 208 209 211 212 204 200 204 202 201 214 211 198 216 220 214
183 182 185 188 186 185 185 185 184 182 182 182 182 182 183 184 186 186 188 189 190 190 191 193 195 198 199 201 203 203 202 202 201 201 200 200 201 203 206 207 207 207 208 212 215 213 212 212 212 214 218 221 222 221 221 223 221 218 219 220 216 217 223 230 225 214 209 209 208 206 210 216 219 214 206 204 206 207 216 224 211 202 224 201 199
183 184 187 189 185 182 183 185 186 184 183 183 182 183 183 184 186 188 189 190 190 191 192 195 197 199 200 201 203 204 204 204 204 204 202 202 202 203 206 209 211 213 213 214 215 213 213 213 214 216 218 221 223 223 222 224 224 222 221 222 222 223 226 231 227 215 210 209 207 207 212 221 222 213 208 209 211 214 228 235 221 206 227 223 196
185 187 189 190 186 182 182 185 187 186 185 184 184 183 184 185 187 189 190 190 192 193 194 197 198 199 200 201 203 204 205 206 207 207 205 204 204 204 207 210 214 217 217 215 215 214 213 214 215 218 220 222 224 224 223 223 224 224 224 225 225 226 228 231 228 219 215 213 211 211 213 218 216 211 212 214 219 226 236 241 232 216 206 221 252
188 190 188 187 185 184 184 184 186 187 186 186 186 186 186 186 187 189 190 190 192 194 195 197 198 198 200 201 202 204 204 206 208 209 209 207 206 206 208 211 214 218 218 217 216 215 215 214 216 218 220 223 225 226 225 223 224 226 226 227 227 228 229 230 230 227 222 217 216 216 216 217 211 210 218 222 227 236 239 241 242 233 219 201 194
191 190 187 185 185 186 186 185 187 188 188 188 188 188 188 188 188 188 189 191 193 194 195 197 197 198 199 200 202 204 205 207 209 210 211 210 209 210 210 211 214 217 218 218 217 216 216 216 217 218 220 222 225 228 227 224 224 226 227 229 230 230 229 229 230 231 229 224 221 220 220 220 215 214 221 227 230 238 242 242 244 243 235 223 206
190 188 186 185 186 188 187 187 187 188 190 190 189 188 188 189 190 190 191 193 194 195 196 197 198 199 200 201 202 204 206 208 210 211 211 212 213 212 212 213 215 217 218 218 217 216 216 216 217 219 219 221 224 227 227 224 224 226 227 228 230 230 231 230 231 231 231 230 228 225 222 222 221 219 220 226 232 236 240 243 244 242 240 237 227
188 186 188 188 188 189 188 188 188 188 190 190 188 187 188 190 190 191 192 193 194 196 197 198 199 201 202 202 203 205 207 208 209 211 211 213 214 214 214 214 215 217 218 218 217 216 215 215 217 218 219 220 222 224 226 224 224 226 227 228 230 230 231 232 233 233 232 232 233 232 228 226 225 223 221 224 229 233 237 241 245 243 239 239 235
187 186 188 188 188 189 189 189 189 189 189 187 187 188 188 189 190 191 192 192 194 196 197 198 200 201 202 203 204 205 207 208 209 211 212 213 214 214 215 214 215 216 217 218 217 216 216 216 216 218 219 220 221 222 224 224 224 226 227 229 230 230 231 232 233 234 233 233 234 235 234 232 229 227 225 225 226 230 235 237 242 244 239 236 232
187 186 186 186 186 188 189 188 187 188 188 187 188 188 188 189 190 191 191 192 194 195 197 198 199 201 203 204 205 205 206 208 209 211 212 213 214 215 215 214 214 216 216 216 216 216 216 216 216 218 219 220 221 221 222 222 223 225 226 228 229 229 230 230 231 233 233 233 233 235 236 235 232 231 230 228 227 228 231 235 238 240 239 236 233
185 183 184 184 185 184 184 185 185 185 187 188 188 188 189 190 190 190 192 194 196 196 198 198 199 202 204 204 205 205 206 208 209 211 213 214 214 215 215 214 215 215 215 216 216 215 215 216 216 218 220 221 221 222 222 221 222 224 225 226 227 227 228 228 229 231 232 232 232 234 236 235 233 234 235 233 231 230 231 235 237 238 240 239 236
182 182 185 183 181 181 181 184 185 185 187 188 190 191 190 190 189 190 193 195 196 197 197 198 200 203 204 204 205 205 206 208 209 212 214 215 215 215 215 215 215 215 216 216 217 216 216 216 217 219 220 221 222 222 221 221 223 224 225 226 226 226 227 228 229 231 232 231 230 232 236 236 233 234 237 237 235 234 234 235 238 239 240 241 240
180 181 182 177 177 179 182 186 186 185 187 189 192 192 191 190 190 192 194 195 196 196 197 198 200 202 203 204 205 205 206 208 210 212 214 216 216 216 216 216 216 216 216 217 217 218 218 218 219 220 221 222 222 222 221 221 223 224 226 227 227 227 228 229 230 232 232 231 231 232 235 235 232 233 236 238 237 237 237 237 239 240 240 242 243
179 181 179 178 180 182 183 186 186 187 188 191 193 193 192 193 194 194 194 194 195 196 196 198 200 201 202 203 204 205 207 209 210 212 214 216 217 217 217 217 217 216 216 217 217 218 218 219 221 222 222 223 223 222 222 222 223 224 225 226 228 229 230 230 231 232 233 232 232 234 236 234 232 232 235 238 238 238 238 237 239 241 241 241 242
179 180 179 179 182 183 183 186 187 188 190 191 193 193 194 195 196 196 196 195 195 195 196 197 199 200 202 204 204 205 207 208 210 211 213 215 216 217 218 218 218 218 217 217 218 218 219 220 221 222 222 223 223 222 222 223 224 224 224 225 227 229 231 232 233 233 234 234 234 236 237 235 233 234 236 238 239 239 238 238 239 241 241 240 240
181 181 182 182 183 184 184 184 186 188 189 191 193 194 195 196 196 196 196 196 196 195 196 197 198 200 203 205 205 206 207 208 210 211 213 214 216 217 217 218 218 218 218 218 218 219 219 220 221 222 223 223 222 222 223 223 224 224 225 225 226 228 230 232 233 234 234 235 236 237 238 238 237 237 238 240 240 239 239 239 240 241 239 239 239
182 183 184 184 183 182 183 184 185 186 187 188 191 194 196 196 196 196 196 196 196 195 197 197 198 202 204 206 206 206 207 208 209 211 213 214 215 216 217 218 218 219 219 219 220 220 220 220 222 223 224 223 222 222 223 224 224 224 225 226 227 227 229 231 233 235 235 236 236 238 239 240 240 240 241 243 243 243 241 240 241 240 238 237 237
183 185 186 187 186 184 183 181 183 186 187 187 189 192 194 195 196 196 196 196 195 195 197 198 200 203 205 206 206 206 207 208 209 211 213 214 215 216 217 217 218 219 219 220 220 221 221 221 222 223 224 224 223 225 226 226 226 225 225 226 227 228 229 230 232 234 236 237 238 239 240 241 242 243 244 245 246 246 245 245 245 244 240 237 234
184 186 186 186 187 186 183 182 184 187 188 187 189 191 193 194 195 195 196 195 194 195 197 199 202 204 205 205 206 206 206 207 209 211 213 214 215 215 216 218 218 219 219 220 220 221 221 222 223 224 225 224 225 227 228 228 228 228 227 226 228 230 230 230 232 233 236 238 239 240 241 242 243 243 244 246 247 247 247 248 249 248 246 242 238
187 188 184 181 183 185 185 186 187 188 189 189 189 189 191 193 194 195 195 195 195 196 198 200 202 204 205 205 206 206 206 207 209 210 212 214 214 215 217 218 218 219 219 219 220 220 221 222 223 225 226 226 227 229 229 230 230 230 229 228 228 231 232 233 233 234 236 239 240 241 243 243 243 244 245 246 246 247 248 249 250 250 249 248 246
187 186 179 175 178 181 186 190 188 188 191 192 190 189 191 194 194 194 195 195 195 197 198 200 202 204 204 205 206 206 207 208 210 211 213 213 214 216 217 218 219 219 219 220 221 221 221 222 223 225 226 227 229 230 231 231 232 233 232 230 229 231 233 234 235 236 237 239 241 242 244 244 245 245 246 246 246 247 249 249 250 250 249 249 249
187 184 179 177 178 179 184 189 190 190 192 193 193 194 195 195 193 193 195 195 196 197 198 200 202 203 205 205 205 206 207 209 210 211 212 213 214 217 218 219 220 220 220 221 222 222 222 222 223 225 227 229 230 232 232 232 233 234 234 232 231 231 233 236 237 238 239 240 242 243 244 246 247 247 246 246 246 247 248 249 249 248 248 248 249
181 178 172 171 173 174 180 189 191 191 191 191 194 197 196 195 194 194 195 197 197 197 198 199 201 202 204 204 204 205 207 208 209 210 211 213 215 217 218 219 219 220 221 222 223 223 224 223 223 225 228 230 232 233 233 234 234 235 235 235 233 232 233 236 238 240 241 242 243 244 245 247 249 249 248 247 248 248 248 248 248 248 248 248 248
172 172 171 172 174 177 182 187 188 187 188 191 195 195 193 192 194 195 196 197 198 199 199 199 200 201 203 203 203 204 206 207 208 208 210 212 214 216 217 217 218 220 222 224 224 225 226 225 225 225 227 231 234 234 234 235 236 236 236 235 234 234 234 236 239 241 242 244 245 246 247 249 250 251 251 250 250 250 249 249 248 249 250 250 251
150 155 158 164 171 175 178 179 181 184 189 193 194 192 190 190 193 196 197 198 199 201 200 199 200 201 202 202 203 203 204 206 207 207 209 212 213 216 216 216 216 219 221 223 224 226 226 227 226 225 226 230 234 235 235 235 237 236 235 235 234 234 235 237 240 242 243 245 246 247 248 249 251 253 253 253 253 251 250 250 249 251 252 252 255
87 104 115 131 149 161 170 176 179 185 192 194 192 189 189 189 192 196 197 199 202 204 203 201 200 201 201 201 203 203 203 205 206 207 209 212 213 215 216 215 216 218 221 223 225 226 228 228 228 227 227 229 233 235 236 236 237 237 236 235 234 234 236 237 240 243 245 246 247 248 249 250 252 254 255 255 255 252 251 250 250 252 253 254 256
67 73 77 88 109 124 136 147 154 165 183 192 192 189 188 190 194 197 198 201 205 207 206 203 201 201 201 202 203 203 204 205 205 207 210 212 213 215 215 215 216 219 222 225 226 228 229 230 231 231 231 231 233 235 236 236 237 237 237 237 235 235 236 238 241 243 246 248 249 250 251 251 254 256 257 256 256 253 252 252 252 251 252 255 259
61 64 67 72 80 85 82 76 71 72 105 177 190 190 189 192 195 196 199 205 209 209 208 206 203 201 201 202 202 203 204 205 206 208 210 212 213 214 214 214 216 218 222 224 226 228 230 232 233 234 234 233 233 234 236 236 236 236 236 237 236 234 236 238 241 244 246 249 251 252 253 254 256 258 259 259 258 256 254 254 253 250 251 257 262
52 54 58 61 61 59 57 52 46 46 53 75 166 186 193 197 196 197 203 209 211 211 210 207 204 201 201 202 202 203 204 206 207 209 210 211 212 212 212 213 214 217 220 223 224 226 230 233 234 234 234 235 235 235 235 236 236 235 234 234 234 234 236 238 241 243 245 248 251 253 255 256 258 261 262 263 262 261 260 258 256 255 257 262 266
46 46 49 51 49 46 44 40 36 35 33 31 51 140 182 199 203 208 212 212 212 211 210 207 204 202 201 202 202 203 204 206 207 208 208 209 211 211 211 212 213 215 217 220 222 225 228 231 234 234 234 235 236 237 238 238 237 236 235 234 234 235 238 239 240 242 244 247 251 254 257 259 261 264 266 267 268 268 266 264 263 263 265 266 267
42 40 43 47 47 43 40 37 32 27 20 10 7 13 14 238 226 228 226 222 218 213 210 207 204 202 202 202 202 203 203 204 205 206 206 207 208 209 210 210 211 212 215 218 221 223 226 229 232 233 234 235 236 238 239 239 239 238 238 238 238 239 240 239 239 241 245 248 252 256 258 261 263 265 267 268 269 270 270 269 270 272 273 273 273
41 36 39 42 41 40 43 41 34 27 20 9 357 343 322 291 274 268 250 231 224 218 211 206 203 202 201 201 201 201 202 202 203 203 204 204 205 205 206 208 209 210 212 215 218 219 221 224 226 226 227 230 232 233 233 234 235 235 236 237 237 236 236 236 237 240 243 247 253 258 261 264 266 268 269 271 272 273 276 278 279 280 282 285 287
40 35 38 43 45 45 43 38 31 26 20 12 5 353 328 303 292 286 264 236 225 218 212 208 204 202 200 199 198 199 200 201 201 201 201 201 201 201 202 204 206 207 209 212 214 215 217 218 216 214 212 215 218 221 223 227 230 231 232 234 236 236 236 238 241 246 251 258 264 268 270 271 272 274 276 278 280 281 284 286 287 289 292 293 294
45 40 46 55 59 53 44 35 28 20 14 10 10 9 359 340 316 280 252 236 223 214 211 208 205 201 199 196 194 195 196 198 198 199 200 200 199 199 199 200 202 204 207 209 211 211 212 212 210 206 203 200 198 199 202 207 213 219 223 227 230 234 236 239 245 250 256 261 264 268 272 276 280 285 288 292 295 296 297 299 298 299 301 301 300
45 49 57 62 63 57 46 38 28 16 10 6 6 8 5 356 342 291 243 229 219 210 206 204 202 199 195 192 190 189 190 192 194 196 198 199 199 198 198 198 199 201 204 207 207 206 206 205 201 197 192 185 177 171 167 164 167 173 176 182 188 195 202 212 224 235 244 254 264 274 284 291 297 301 302 305 310 312 315 316 315 315 314 312 308
43 53 62 61 57 52 47 37 25 16 11 5 2 360 356 352 349 327 253 222 211 205 202 199 197 193 190 188 187 183 180 180 183 187 190 192 195 197 199 200 201 202 203 203 203 203 204 203 197 186 174 163 158 159 156 151 152 156 155 155 163 171 182 197 213 230 249 264 276 287 300 310 318 321 323 328 332 335 338 337 334 331 327 322 317
49 59 68 65 53 44 37 29 22 14 7 360 356 354 348 342 343 338 282 217 203 198 195 192 190 187 185 182 177 174 172 169 165 162 160 165 181 194 198 201 204 206 207 208 206 205 205 203 193 182 173 164 156 153 154 154 152 154 155 158 164 168 173 177 177 179 215 272 324 348 359 4 3 2 359 356 352 349 347 345 341 336 331 326 322
64 68 67 63 51 36 20 14 14 11 2 353 346 344 339 330 325 330 303 213 193 186 185 184 182 179 176 170 165 164 165 161 154 146 139 131 137 171 190 197 202 205 206 209 210 207 203 199 189 179 176 174 164 153 151 152 150 147 147 144 140 137 133 123 111 102 93 70 50 41 34 25 18 13 5 357 352 348 344 342 341 338 334 330 326
75 77 68 56 45 27 11 4 2 3 360 349 340 336 332 322 307 300 290 214 184 176 173 174 173 170 166 162 159 157 155 151 146 142 136 123 108 104 125 161 181 189 194 199 201 196 193 193 187 173 161 160 157 151 148 148 143 139 136 130 125 119 112 103 93 83 72 59 47 41 37 28 19 12 3 354 349 347 342 338 338 337 336 335 331